Time,TemperatureF,DewpointF,PressureIn,WindDirection,WindDirectionDegrees,WindSpeedMPH,WindSpeedGustMPH,Humidity,HourlyPrecipIn,Conditions,Clouds,dailyrainin,SoftwareType,DateUTC
2013-03-01 00:00:00,47.0,33.0,29.88,SW,225,0.0,6.0,60,0.00,,,0.00,Rainwise IP-100,2013-03-01 05:00:00,
2013-03-01 00:05:00,46.0,33.0,29.89,West,270,0.0,3.0,61,0.00,,,0.00,Rainwise IP-100,2013-03-01 05:05:00,
2013-03-01 00:10:00,46.0,33.0,29.89,WSW,247,0.0,5.0,62,0.00,,,0.00,Rainwise IP-100,2013-03-01 05:10:00,
2013-03-01 00:15:00,46.0,33.0,29.89,SSW,202,0.0,4.0,62,0.00,,,0.00,Rainwise IP-100,2013-03-01 05:15:00,
2013-03-01 00:36:00,46.0,33.0,29.89,SW,225,0.0,10.0,60,0.00,,,0.00,Rainwise IP-100,2013-03-01 05:36:00,
2013-03-01 00:41:00,46.0,32.0,29.90,NW,315,3.0,16.0,59,0.00,,,0.00,Rainwise IP-100,2013-03-01 05:41:00,
2013-03-01 00:46:00,46.0,33.0,29.90,NW,315,0.0,10.0,61,0.00,,,0.00,Rainwise IP-100,2013-03-01 05:46:00,
2013-03-01 00:51:00,46.0,33.0,29.90,West,270,2.0,9.0,61,0.00,,,0.00,Rainwise IP-100,2013-03-01 05:51:00,
2013-03-01 00:56:00,46.0,33.0,29.90,West,270,6.0,9.0,61,0.00,,,0.00,Rainwise IP-100,2013-03-01 05:56:00,
2013-03-01 01:01:00,46.0,33.0,29.90,West,270,4.0,12.0,61,0.00,,,0.00,Rainwise IP-100,2013-03-01 06:01:00,
2013-03-01 01:06:00,46.0,33.0,29.90,West,270,0.0,8.0,62,0.00,,,0.00,Rainwise IP-100,2013-03-01 06:06:00,
2013-03-01 01:11:00,45.0,33.0,29.91,SSW,202,3.0,6.0,63,0.00,,,0.00,Rainwise IP-100,2013-03-01 06:11:00,
2013-03-01 01:16:00,45.0,33.0,29.91,WSW,247,0.0,3.0,64,0.00,,,0.00,Rainwise IP-100,2013-03-01 06:16:00,
2013-03-01 01:21:00,45.0,35.0,29.91,WNW,292,7.0,7.0,65,0.00,,,0.00,Rainwise IP-100,2013-03-01 06:21:00,
2013-03-01 01:26:00,45.0,33.0,29.90,WSW,247,0.0,7.0,64,0.00,,,0.00,Rainwise IP-100,2013-03-01 06:26:00,
2013-03-01 01:31:00,45.0,33.0,29.90,SW,225,0.0,6.0,64,0.00,,,0.00,Rainwise IP-100,2013-03-01 06:31:00,
2013-03-01 01:36:00,44.0,33.0,29.90,SSW,202,0.0,5.0,65,0.00,,,0.00,Rainwise IP-100,2013-03-01 06:36:00,
2013-03-01 01:41:00,44.0,33.0,29.90,WSW,247,2.0,10.0,64,0.00,,,0.00,Rainwise IP-100,2013-03-01 06:41:00,
2013-03-01 01:46:00,44.0,33.0,29.90,NW,315,0.0,6.0,65,0.00,,,0.00,Rainwise IP-100,2013-03-01 06:46:00,
2013-03-01 01:51:00,44.0,33.0,29.89,SW,225,0.0,5.0,65,0.00,,,0.00,Rainwise IP-100,2013-03-01 06:51:00,
2013-03-01 01:56:00,44.0,33.0,29.90,WSW,247,0.0,7.0,64,0.00,,,0.00,Rainwise IP-100,2013-03-01 06:56:00,
2013-03-01 02:01:00,44.0,33.0,29.89,SW,225,0.0,5.0,65,0.00,,,0.00,Rainwise IP-100,2013-03-01 07:01:00,
2013-03-01 02:06:00,44.0,33.0,29.90,WSW,247,0.0,6.0,66,0.00,,,0.00,Rainwise IP-100,2013-03-01 07:06:00,
2013-03-01 02:12:00,44.0,33.0,29.90,SW,225,1.0,3.0,67,0.00,,,0.00,Rainwise IP-100,2013-03-01 07:12:00,
2013-03-01 02:14:00,44.0,33.0,29.90,West,270,0.0,6.0,67,0.00,,,0.00,Rainwise IP-100,2013-03-01 07:14:00,
2013-03-01 02:19:00,44.0,33.0,29.90,WSW,247,2.0,10.0,65,0.00,,,0.00,Rainwise IP-100,2013-03-01 07:19:00,
2013-03-01 02:24:00,43.0,32.0,29.90,SW,225,0.0,6.0,64,0.00,,,0.00,Rainwise IP-100,2013-03-01 07:24:00,
2013-03-01 02:29:00,43.0,32.0,29.90,SW,225,0.0,6.0,64,0.00,,,0.00,Rainwise IP-100,2013-03-01 07:29:00,
2013-03-01 02:34:00,43.0,32.0,29.90,SW,225,0.0,4.0,64,0.00,,,0.00,Rainwise IP-100,2013-03-01 07:34:00,
2013-03-01 02:39:00,43.0,32.0,29.90,WNW,292,0.0,5.0,64,0.00,,,0.00,Rainwise IP-100,2013-03-01 07:39:00,
2013-03-01 02:44:00,43.0,32.0,29.90,SSW,202,0.0,3.0,64,0.00,,,0.00,Rainwise IP-100,2013-03-01 07:44:00,
2013-03-01 02:49:00,43.0,32.0,29.90,WNW,292,1.0,6.0,64,0.00,,,0.00,Rainwise IP-100,2013-03-01 07:49:00,
2013-03-01 02:54:00,43.0,32.0,29.90,SW,225,0.0,4.0,65,0.00,,,0.00,Rainwise IP-100,2013-03-01 07:54:00,
2013-03-01 02:59:00,43.0,32.0,29.90,SW,225,0.0,3.0,65,0.00,,,0.00,Rainwise IP-100,2013-03-01 07:59:00,
2013-03-01 03:04:00,43.0,32.0,29.90,SSW,202,0.0,2.0,66,0.00,,,0.00,Rainwise IP-100,2013-03-01 08:04:00,
2013-03-01 03:09:00,43.0,33.0,29.89,West,270,1.0,4.0,67,0.00,,,0.00,Rainwise IP-100,2013-03-01 08:09:00,
2013-03-01 03:14:00,43.0,32.0,29.90,WNW,292,2.0,10.0,63,0.00,,,0.00,Rainwise IP-100,2013-03-01 08:14:00,
2013-03-01 03:19:00,43.0,32.0,29.90,WSW,247,9.0,9.0,64,0.00,,,0.00,Rainwise IP-100,2013-03-01 08:19:00,
2013-03-01 03:24:00,42.0,31.0,29.91,SW,225,1.0,9.0,64,0.00,,,0.00,Rainwise IP-100,2013-03-01 08:24:00,
2013-03-01 03:29:00,42.0,31.0,29.91,SSW,202,0.0,6.0,63,0.00,,,0.00,Rainwise IP-100,2013-03-01 08:29:00,
2013-03-01 03:34:00,42.0,31.0,29.90,West,270,0.0,3.0,64,0.00,,,0.00,Rainwise IP-100,2013-03-01 08:34:00,
2013-03-01 03:39:00,42.0,32.0,29.90,SSW,202,1.0,3.0,65,0.00,,,0.00,Rainwise IP-100,2013-03-01 08:39:00,
2013-03-01 03:44:00,42.0,32.0,29.91,SSW,202,0.0,6.0,66,0.00,,,0.00,Rainwise IP-100,2013-03-01 08:44:00,
2013-03-01 03:49:00,42.0,32.0,29.91,SW,225,3.0,7.0,66,0.00,,,0.00,Rainwise IP-100,2013-03-01 08:49:00,
2013-03-01 03:54:00,42.0,32.0,29.91,SW,225,1.0,6.0,66,0.00,,,0.00,Rainwise IP-100,2013-03-01 08:54:00,
2013-03-01 03:59:00,42.0,32.0,29.90,WSW,247,0.0,6.0,66,0.00,,,0.00,Rainwise IP-100,2013-03-01 08:59:00,
2013-03-01 04:04:00,42.0,32.0,29.90,West,270,0.0,5.0,66,0.00,,,0.00,Rainwise IP-100,2013-03-01 09:04:00,
2013-03-01 04:09:00,42.0,32.0,29.90,WSW,247,0.0,5.0,66,0.00,,,0.00,Rainwise IP-100,2013-03-01 09:09:00,
2013-03-01 04:14:00,42.0,32.0,29.90,SSW,202,0.0,4.0,66,0.00,,,0.00,Rainwise IP-100,2013-03-01 09:14:00,
2013-03-01 04:19:00,42.0,32.0,29.91,SSW,202,1.0,6.0,67,0.00,,,0.00,Rainwise IP-100,2013-03-01 09:19:00,
2013-03-01 04:24:00,42.0,32.0,29.90,WSW,247,1.0,10.0,66,0.00,,,0.00,Rainwise IP-100,2013-03-01 09:24:00,
2013-03-01 04:29:00,42.0,32.0,29.90,WNW,292,2.0,8.0,66,0.00,,,0.00,Rainwise IP-100,2013-03-01 09:29:00,
2013-03-01 04:34:00,42.0,32.0,29.90,NW,315,0.0,7.0,65,0.00,,,0.00,Rainwise IP-100,2013-03-01 09:34:00,
2013-03-01 04:39:00,42.0,32.0,29.91,SSW,202,0.0,7.0,66,0.00,,,0.00,Rainwise IP-100,2013-03-01 09:39:00,
2013-03-01 04:44:00,41.0,31.0,29.90,WNW,292,1.0,7.0,67,0.00,,,0.00,Rainwise IP-100,2013-03-01 09:44:00,
2013-03-01 04:49:00,41.0,31.0,29.90,SW,225,6.0,7.0,67,0.00,,,0.00,Rainwise IP-100,2013-03-01 09:49:00,
2013-03-01 04:54:00,41.0,31.0,29.91,West,270,5.0,8.0,66,0.00,,,0.00,Rainwise IP-100,2013-03-01 09:54:00,
2013-03-01 04:59:00,41.0,31.0,29.90,SW,225,6.0,9.0,66,0.00,,,0.00,Rainwise IP-100,2013-03-01 09:59:00,
2013-03-01 05:04:00,41.0,31.0,29.90,WSW,247,2.0,10.0,66,0.00,,,0.00,Rainwise IP-100,2013-03-01 10:04:00,
2013-03-01 05:09:00,41.0,31.0,29.90,NNW,337,0.0,10.0,66,0.00,,,0.00,Rainwise IP-100,2013-03-01 10:09:00,
2013-03-01 05:14:00,41.0,31.0,29.90,WNW,292,4.0,7.0,67,0.00,,,0.00,Rainwise IP-100,2013-03-01 10:14:00,
2013-03-01 05:19:00,41.0,31.0,29.90,WSW,247,0.0,9.0,67,0.00,,,0.00,Rainwise IP-100,2013-03-01 10:19:00,
2013-03-01 05:24:00,41.0,32.0,29.90,West,270,3.0,5.0,68,0.00,,,0.00,Rainwise IP-100,2013-03-01 10:24:00,
2013-03-01 05:29:00,41.0,32.0,29.90,WNW,292,1.0,7.0,68,0.00,,,0.00,Rainwise IP-100,2013-03-01 10:29:00,
2013-03-01 05:34:00,41.0,32.0,29.90,West,270,1.0,7.0,68,0.00,,,0.00,Rainwise IP-100,2013-03-01 10:34:00,
2013-03-01 05:39:00,41.0,32.0,29.90,West,270,3.0,7.0,68,0.00,,,0.00,Rainwise IP-100,2013-03-01 10:39:00,
2013-03-01 05:44:00,41.0,32.0,29.91,SW,225,0.0,7.0,68,0.00,,,0.00,Rainwise IP-100,2013-03-01 10:44:00,
2013-03-01 05:49:00,40.0,31.0,29.90,WSW,247,4.0,7.0,68,0.00,,,0.00,Rainwise IP-100,2013-03-01 10:49:00,
2013-03-01 05:54:00,40.0,31.0,29.90,WSW,247,0.0,6.0,69,0.00,,,0.00,Rainwise IP-100,2013-03-01 10:54:00,
2013-03-01 05:59:00,40.0,32.0,29.91,WNW,292,1.0,6.0,70,0.00,,,0.00,Rainwise IP-100,2013-03-01 10:59:00,
2013-03-01 06:04:00,40.0,32.0,29.90,West,270,1.0,2.0,70,0.00,,,0.00,Rainwise IP-100,2013-03-01 11:04:00,
2013-03-01 06:09:00,40.0,32.0,29.90,WSW,247,0.0,6.0,70,0.00,,,0.00,Rainwise IP-100,2013-03-01 11:09:00,
2013-03-01 06:14:00,40.0,32.0,29.90,SW,225,0.0,6.0,70,0.00,,,0.00,Rainwise IP-100,2013-03-01 11:14:00,
2013-03-01 06:19:00,40.0,32.0,29.90,SSW,202,0.0,6.0,70,0.00,,,0.00,Rainwise IP-100,2013-03-01 11:19:00,
2013-03-01 06:24:00,40.0,31.0,29.90,West,270,2.0,8.0,69,0.00,,,0.00,Rainwise IP-100,2013-03-01 11:24:00,
2013-03-01 06:29:00,40.0,32.0,29.90,WSW,247,0.0,8.0,70,0.00,,,0.00,Rainwise IP-100,2013-03-01 11:29:00,
2013-03-01 06:34:00,40.0,32.0,29.90,West,270,1.0,3.0,70,0.00,,,0.00,Rainwise IP-100,2013-03-01 11:34:00,
2013-03-01 06:39:00,40.0,32.0,29.90,WSW,247,1.0,6.0,70,0.00,,,0.00,Rainwise IP-100,2013-03-01 11:39:00,
2013-03-01 06:44:00,40.0,32.0,29.90,SSW,202,0.0,5.0,71,0.00,,,0.00,Rainwise IP-100,2013-03-01 11:44:00,
2013-03-01 06:49:00,39.0,31.0,29.90,SW,225,0.0,1.0,72,0.00,,,0.00,Rainwise IP-100,2013-03-01 11:49:00,
2013-03-01 06:54:00,39.0,32.0,29.91,SW,225,0.0,3.0,73,0.00,,,0.00,Rainwise IP-100,2013-03-01 11:54:00,
2013-03-01 06:59:00,39.0,32.0,29.91,SW,225,1.0,4.0,73,0.00,,,0.00,Rainwise IP-100,2013-03-01 11:59:00,
2013-03-01 07:04:00,39.0,32.0,29.91,SW,225,0.0,2.0,73,0.00,,,0.00,Rainwise IP-100,2013-03-01 12:04:00,
2013-03-01 07:09:00,39.0,32.0,29.91,WNW,292,0.0,1.0,75,0.00,,,0.00,Rainwise IP-100,2013-03-01 12:09:00,
2013-03-01 07:14:00,39.0,32.0,29.91,West,270,0.0,0.0,75,0.00,,,0.00,Rainwise IP-100,2013-03-01 12:14:00,
2013-03-01 07:19:00,39.0,32.0,29.91,West,270,0.0,4.0,75,0.00,,,0.00,Rainwise IP-100,2013-03-01 12:19:00,
2013-03-01 07:24:00,39.0,32.0,29.92,West,270,0.0,1.0,75,0.00,,,0.00,Rainwise IP-100,2013-03-01 12:24:00,
2013-03-01 07:29:00,39.0,32.0,29.92,WSW,247,0.0,2.0,75,0.00,,,0.00,Rainwise IP-100,2013-03-01 12:29:00,
2013-03-01 07:34:00,39.0,32.0,29.92,WNW,292,0.0,4.0,75,0.00,,,0.00,Rainwise IP-100,2013-03-01 12:34:00,
2013-03-01 07:39:00,39.0,32.0,29.91,West,270,0.0,4.0,74,0.00,,,0.00,Rainwise IP-100,2013-03-01 12:39:00,
2013-03-01 07:44:00,40.0,32.0,29.92,West,270,3.0,7.0,73,0.00,,,0.00,Rainwise IP-100,2013-03-01 12:44:00,
2013-03-01 07:49:00,40.0,32.0,29.92,West,270,0.0,6.0,73,0.00,,,0.00,Rainwise IP-100,2013-03-01 12:49:00,
2013-03-01 07:54:00,40.0,32.0,29.92,NW,315,2.0,7.0,73,0.00,,,0.00,Rainwise IP-100,2013-03-01 12:54:00,
2013-03-01 07:59:00,40.0,32.0,29.92,West,270,1.0,6.0,71,0.00,,,0.00,Rainwise IP-100,2013-03-01 12:59:00,
2013-03-01 08:04:00,40.0,32.0,29.92,WSW,247,0.0,5.0,72,0.00,,,0.00,Rainwise IP-100,2013-03-01 13:04:00,
2013-03-01 08:09:00,40.0,32.0,29.92,West,270,2.0,5.0,72,0.00,,,0.00,Rainwise IP-100,2013-03-01 13:09:00,
2013-03-01 08:14:00,40.0,32.0,29.92,SW,225,4.0,6.0,71,0.00,,,0.00,Rainwise IP-100,2013-03-01 13:14:00,
2013-03-01 08:19:00,40.0,32.0,29.92,WSW,247,1.0,6.0,71,0.00,,,0.00,Rainwise IP-100,2013-03-01 13:19:00,
2013-03-01 08:24:00,41.0,32.0,29.92,NW,315,0.0,5.0,71,0.00,,,0.00,Rainwise IP-100,2013-03-01 13:24:00,
2013-03-01 08:29:00,41.0,32.0,29.93,WSW,247,2.0,5.0,71,0.00,,,0.00,Rainwise IP-100,2013-03-01 13:29:00,
2013-03-01 08:34:00,41.0,32.0,29.93,SW,225,0.0,6.0,70,0.00,,,0.00,Rainwise IP-100,2013-03-01 13:34:00,
2013-03-01 08:39:00,41.0,32.0,29.94,West,270,1.0,8.0,70,0.00,,,0.00,Rainwise IP-100,2013-03-01 13:39:00,
2013-03-01 08:44:00,41.0,32.0,29.93,West,270,2.0,6.0,70,0.00,,,0.00,Rainwise IP-100,2013-03-01 13:44:00,
2013-03-01 08:49:00,41.0,32.0,29.94,SW,225,0.0,3.0,70,0.00,,,0.00,Rainwise IP-100,2013-03-01 13:49:00,
2013-03-01 08:54:00,42.0,33.0,29.94,WSW,247,0.0,5.0,70,0.00,,,0.00,Rainwise IP-100,2013-03-01 13:54:00,
2013-03-01 08:59:00,42.0,32.0,29.94,WSW,247,6.0,9.0,68,0.00,,,0.00,Rainwise IP-100,2013-03-01 13:59:00,
2013-03-01 09:04:00,42.0,32.0,29.94,WNW,292,1.0,7.0,68,0.00,,,0.00,Rainwise IP-100,2013-03-01 14:04:00,
2013-03-01 09:09:00,42.0,32.0,29.94,NW,315,0.0,9.0,68,0.00,,,0.00,Rainwise IP-100,2013-03-01 14:09:00,
2013-03-01 09:14:00,43.0,33.0,29.94,SSW,202,0.0,7.0,67,0.00,,,0.00,Rainwise IP-100,2013-03-01 14:14:00,
2013-03-01 09:19:00,43.0,33.0,29.94,NW,315,4.0,4.0,67,0.00,,,0.00,Rainwise IP-100,2013-03-01 14:19:00,
2013-03-01 09:24:00,43.0,32.0,29.94,WSW,247,1.0,6.0,66,0.00,,,0.00,Rainwise IP-100,2013-03-01 14:24:00,
2013-03-01 09:29:00,43.0,32.0,29.95,South,180,0.0,8.0,66,0.00,,,0.00,Rainwise IP-100,2013-03-01 14:29:00,
2013-03-01 09:34:00,44.0,33.0,29.95,West,270,2.0,4.0,66,0.00,,,0.00,Rainwise IP-100,2013-03-01 14:34:00,
2013-03-01 09:39:00,44.0,33.0,29.95,WSW,247,0.0,6.0,65,0.00,,,0.00,Rainwise IP-100,2013-03-01 14:39:00,
2013-03-01 09:44:00,44.0,32.0,29.94,West,270,2.0,6.0,63,0.00,,,0.00,Rainwise IP-100,2013-03-01 14:44:00,
2013-03-01 09:49:00,45.0,33.0,29.95,WSW,247,0.0,4.0,64,0.00,,,0.00,Rainwise IP-100,2013-03-01 14:49:00,
2013-03-01 09:54:00,45.0,33.0,29.94,SW,225,0.0,7.0,63,0.00,,,0.00,Rainwise IP-100,2013-03-01 14:54:00,
2013-03-01 09:59:00,45.0,33.0,29.94,WSW,247,0.0,5.0,63,0.00,,,0.00,Rainwise IP-100,2013-03-01 14:59:00,
2013-03-01 10:04:00,45.0,33.0,29.94,SW,225,0.0,7.0,62,0.00,,,0.00,Rainwise IP-100,2013-03-01 15:04:00,
2013-03-01 10:09:00,46.0,33.0,29.94,NW,315,0.0,6.0,62,0.00,,,0.00,Rainwise IP-100,2013-03-01 15:09:00,
2013-03-01 10:14:00,46.0,33.0,29.94,South,180,1.0,6.0,61,0.00,,,0.00,Rainwise IP-100,2013-03-01 15:14:00,
2013-03-01 10:19:00,46.0,33.0,29.94,NNW,337,0.0,3.0,60,0.00,,,0.00,Rainwise IP-100,2013-03-01 15:19:00,
2013-03-01 10:24:00,46.0,33.0,29.95,SW,225,5.0,9.0,60,0.00,,,0.00,Rainwise IP-100,2013-03-01 15:24:00,
2013-03-01 10:29:00,46.0,33.0,29.95,NW,315,0.0,7.0,60,0.00,,,0.00,Rainwise IP-100,2013-03-01 15:29:00,
2013-03-01 10:34:00,47.0,33.0,29.96,SW,225,0.0,6.0,60,0.00,,,0.00,Rainwise IP-100,2013-03-01 15:34:00,
2013-03-01 10:39:00,48.0,35.0,29.95,WSW,247,0.0,4.0,58,0.00,,,0.00,Rainwise IP-100,2013-03-01 15:39:00,
2013-03-01 10:44:00,47.0,33.0,29.96,West,270,4.0,10.0,58,0.00,,,0.00,Rainwise IP-100,2013-03-01 15:44:00,
2013-03-01 10:49:00,47.0,33.0,29.96,WNW,292,1.0,7.0,59,0.00,,,0.00,Rainwise IP-100,2013-03-01 15:49:00,
2013-03-01 10:54:00,48.0,35.0,29.96,WSW,247,2.0,5.0,59,0.00,,,0.00,Rainwise IP-100,2013-03-01 15:54:00,
2013-03-01 10:59:00,48.0,32.0,29.95,NW,315,3.0,6.0,53,0.00,,,0.00,Rainwise IP-100,2013-03-01 15:59:00,
2013-03-01 11:04:00,49.0,35.0,29.96,SSW,202,1.0,6.0,56,0.00,,,0.00,Rainwise IP-100,2013-03-01 16:04:00,
2013-03-01 11:09:00,49.0,33.0,29.96,SW,225,0.0,7.0,53,0.00,,,0.00,Rainwise IP-100,2013-03-01 16:09:00,
2013-03-01 11:14:00,49.0,32.0,29.96,NW,315,0.0,3.0,52,0.00,,,0.00,Rainwise IP-100,2013-03-01 16:14:00,
2013-03-01 11:19:00,50.0,33.0,29.96,NW,315,2.0,4.0,52,0.00,,,0.00,Rainwise IP-100,2013-03-01 16:19:00,
2013-03-01 11:24:00,50.0,33.0,29.95,SSW,202,0.0,6.0,52,0.00,,,0.00,Rainwise IP-100,2013-03-01 16:24:00,
2013-03-01 11:29:00,50.0,33.0,29.95,SE,135,1.0,4.0,52,0.00,,,0.00,Rainwise IP-100,2013-03-01 16:29:00,
2013-03-01 11:34:00,50.0,32.0,29.95,SW,225,5.0,7.0,50,0.00,,,0.00,Rainwise IP-100,2013-03-01 16:34:00,
2013-03-01 11:39:00,50.0,31.0,29.96,SSW,202,0.0,9.0,48,0.00,,,0.00,Rainwise IP-100,2013-03-01 16:39:00,
2013-03-01 11:44:00,50.0,31.0,29.95,SSW,202,0.0,7.0,48,0.00,,,0.00,Rainwise IP-100,2013-03-01 16:44:00,
2013-03-01 11:49:00,50.0,32.0,29.95,WSW,247,0.0,10.0,50,0.00,,,0.00,Rainwise IP-100,2013-03-01 16:49:00,
2013-03-01 11:54:00,50.0,32.0,29.95,SW,225,0.0,7.0,50,0.00,,,0.00,Rainwise IP-100,2013-03-01 16:54:00,
2013-03-01 11:59:00,50.0,32.0,29.95,WSW,247,0.0,6.0,49,0.00,,,0.00,Rainwise IP-100,2013-03-01 16:59:00,
2013-03-01 12:04:00,50.0,32.0,29.94,NW,315,0.0,8.0,50,0.00,,,0.00,Rainwise IP-100,2013-03-01 17:04:00,
2013-03-01 12:09:00,51.0,32.0,29.95,NW,315,0.0,6.0,48,0.00,,,0.00,Rainwise IP-100,2013-03-01 17:09:00,
2013-03-01 12:14:00,52.0,33.0,29.95,SSW,202,3.0,7.0,48,0.00,,,0.00,Rainwise IP-100,2013-03-01 17:14:00,
2013-03-01 12:19:00,51.0,32.0,29.95,SSW,202,3.0,11.0,48,0.00,,,0.00,Rainwise IP-100,2013-03-01 17:19:00,
2013-03-01 12:24:00,51.0,32.0,29.94,SSW,202,2.0,10.0,47,0.00,,,0.00,Rainwise IP-100,2013-03-01 17:24:00,
2013-03-01 12:29:00,51.0,32.0,29.94,SSW,202,0.0,8.0,48,0.00,,,0.00,Rainwise IP-100,2013-03-01 17:29:00,
2013-03-01 12:34:00,51.0,31.0,29.94,West,270,3.0,7.0,45,0.00,,,0.00,Rainwise IP-100,2013-03-01 17:34:00,
2013-03-01 12:39:00,51.0,32.0,29.94,SW,225,6.0,9.0,48,0.00,,,0.00,Rainwise IP-100,2013-03-01 17:39:00,
2013-03-01 12:44:00,51.0,33.0,29.93,SW,225,6.0,7.0,49,0.00,,,0.00,Rainwise IP-100,2013-03-01 17:44:00,
2013-03-01 12:49:00,51.0,32.0,29.93,SSW,202,5.0,9.0,48,0.00,,,0.00,Rainwise IP-100,2013-03-01 17:49:00,
2013-03-01 12:54:00,51.0,32.0,29.93,SW,225,4.0,9.0,48,0.00,,,0.00,Rainwise IP-100,2013-03-01 17:54:00,
2013-03-01 12:59:00,51.0,32.0,29.93,SSW,202,4.0,10.0,48,0.00,,,0.00,Rainwise IP-100,2013-03-01 17:59:00,
2013-03-01 13:04:00,51.0,32.0,29.93,SSW,202,3.0,12.0,48,0.00,,,0.00,Rainwise IP-100,2013-03-01 18:04:00,
2013-03-01 13:09:00,51.0,32.0,29.92,SE,135,0.0,9.0,48,0.00,,,0.00,Rainwise IP-100,2013-03-01 18:09:00,
2013-03-01 13:14:00,52.0,33.0,29.92,SSW,202,7.0,9.0,48,0.00,,,0.00,Rainwise IP-100,2013-03-01 18:14:00,
2013-03-01 13:19:00,51.0,32.0,29.92,SSW,202,0.0,9.0,47,0.00,,,0.00,Rainwise IP-100,2013-03-01 18:19:00,
2013-03-01 13:24:00,52.0,33.0,29.92,SW,225,4.0,10.0,48,0.00,,,0.00,Rainwise IP-100,2013-03-01 18:24:00,
2013-03-01 13:29:00,52.0,32.0,29.92,SW,225,0.0,9.0,47,0.00,,,0.00,Rainwise IP-100,2013-03-01 18:29:00,
2013-03-01 13:33:00,52.0,33.0,29.91,SW,225,5.0,6.0,48,0.00,,,0.00,Rainwise IP-100,2013-03-01 18:33:00,
2013-03-01 13:38:00,52.0,32.0,29.91,SW,225,8.0,10.0,47,0.00,,,0.00,Rainwise IP-100,2013-03-01 18:38:00,
2013-03-01 13:43:00,52.0,32.0,29.91,SSW,202,3.0,10.0,47,0.00,,,0.00,Rainwise IP-100,2013-03-01 18:43:00,
2013-03-01 13:48:00,52.0,33.0,29.90,SSW,202,0.0,9.0,48,0.00,,,0.00,Rainwise IP-100,2013-03-01 18:48:00,
2013-03-01 13:53:00,53.0,32.0,29.90,SSW,202,6.0,10.0,45,0.00,,,0.00,Rainwise IP-100,2013-03-01 18:53:00,
2013-03-01 13:58:00,53.0,32.0,29.91,SW,225,0.0,9.0,46,0.00,,,0.00,Rainwise IP-100,2013-03-01 18:58:00,
2013-03-01 14:03:00,53.0,32.0,29.90,SSW,202,4.0,7.0,46,0.00,,,0.00,Rainwise IP-100,2013-03-01 19:03:00,
2013-03-01 14:08:00,53.0,32.0,29.90,South,180,0.0,8.0,46,0.00,,,0.00,Rainwise IP-100,2013-03-01 19:08:00,
2013-03-01 14:13:00,53.0,32.0,29.90,SW,225,3.0,9.0,45,0.00,,,0.00,Rainwise IP-100,2013-03-01 19:13:00,
2013-03-01 14:18:00,53.0,32.0,29.90,SSW,202,1.0,9.0,45,0.00,,,0.00,Rainwise IP-100,2013-03-01 19:18:00,
2013-03-01 14:23:00,53.0,32.0,29.90,SSW,202,3.0,10.0,46,0.00,,,0.00,Rainwise IP-100,2013-03-01 19:23:00,
2013-03-01 14:28:00,53.0,32.0,29.90,NW,315,2.0,10.0,46,0.00,,,0.00,Rainwise IP-100,2013-03-01 19:28:00,
2013-03-01 14:33:00,53.0,32.0,29.89,WSW,247,2.0,6.0,46,0.00,,,0.00,Rainwise IP-100,2013-03-01 19:33:00,
2013-03-01 14:38:00,53.0,32.0,29.90,NW,315,0.0,12.0,45,0.00,,,0.00,Rainwise IP-100,2013-03-01 19:38:00,
2013-03-01 14:43:00,53.0,32.0,29.90,SSW,202,7.0,7.0,44,0.00,,,0.00,Rainwise IP-100,2013-03-01 19:43:00,
2013-03-01 14:48:00,53.0,32.0,29.89,South,180,3.0,7.0,44,0.00,,,0.00,Rainwise IP-100,2013-03-01 19:48:00,
2013-03-01 14:53:00,52.0,32.0,29.89,NW,315,0.0,9.0,46,0.00,,,0.00,Rainwise IP-100,2013-03-01 19:53:00,
2013-03-01 14:58:00,53.0,32.0,29.89,WSW,247,0.0,9.0,44,0.00,,,0.00,Rainwise IP-100,2013-03-01 19:58:00,
2013-03-01 15:03:00,53.0,33.0,29.89,WSW,247,5.0,7.0,47,0.00,,,0.00,Rainwise IP-100,2013-03-01 20:03:00,
2013-03-01 15:08:00,52.0,32.0,29.89,SW,225,2.0,13.0,45,0.00,,,0.00,Rainwise IP-100,2013-03-01 20:08:00,
2013-03-01 15:13:00,52.0,31.0,29.89,SW,225,0.0,8.0,44,0.00,,,0.00,Rainwise IP-100,2013-03-01 20:13:00,
2013-03-01 15:18:00,53.0,32.0,29.89,SSW,202,4.0,9.0,46,0.00,,,0.00,Rainwise IP-100,2013-03-01 20:18:00,
2013-03-01 15:23:00,53.0,32.0,29.89,NNW,337,4.0,7.0,46,0.00,,,0.00,Rainwise IP-100,2013-03-01 20:23:00,
2013-03-01 15:28:00,53.0,32.0,29.89,SSW,202,3.0,7.0,46,0.00,,,0.00,Rainwise IP-100,2013-03-01 20:28:00,
2013-03-01 15:33:00,53.0,32.0,29.88,SW,225,4.0,9.0,45,0.00,,,0.00,Rainwise IP-100,2013-03-01 20:33:00,
2013-03-01 15:38:00,53.0,32.0,29.88,SW,225,6.0,8.0,46,0.00,,,0.00,Rainwise IP-100,2013-03-01 20:38:00,
2013-03-01 15:43:00,53.0,32.0,29.88,SW,225,0.0,6.0,46,0.00,,,0.00,Rainwise IP-100,2013-03-01 20:43:00,
2013-03-01 15:48:00,53.0,32.0,29.88,West,270,3.0,10.0,46,0.00,,,0.00,Rainwise IP-100,2013-03-01 20:48:00,
2013-03-01 15:53:00,53.0,33.0,29.88,West,270,7.0,7.0,47,0.00,,,0.00,Rainwise IP-100,2013-03-01 20:53:00,
2013-03-01 15:58:00,53.0,32.0,29.88,WNW,292,0.0,8.0,46,0.00,,,0.00,Rainwise IP-100,2013-03-01 20:58:00,
2013-03-01 16:03:00,54.0,33.0,29.88,WNW,292,1.0,12.0,46,0.00,,,0.00,Rainwise IP-100,2013-03-01 21:03:00,
2013-03-01 16:08:00,53.0,32.0,29.89,SW,225,0.0,7.0,46,0.00,,,0.00,Rainwise IP-100,2013-03-01 21:08:00,
2013-03-01 16:13:00,53.0,32.0,29.89,South,180,0.0,8.0,46,0.00,,,0.00,Rainwise IP-100,2013-03-01 21:13:00,
2013-03-01 16:18:00,53.0,33.0,29.90,SSW,202,7.0,7.0,47,0.00,,,0.00,Rainwise IP-100,2013-03-01 21:18:00,
2013-03-01 16:23:00,53.0,32.0,29.89,WSW,247,0.0,8.0,46,0.00,,,0.00,Rainwise IP-100,2013-03-01 21:23:00,
2013-03-01 16:28:00,53.0,33.0,29.89,South,180,3.0,6.0,47,0.00,,,0.00,Rainwise IP-100,2013-03-01 21:28:00,
2013-03-01 16:33:00,53.0,33.0,29.89,SW,225,2.0,10.0,48,0.00,,,0.00,Rainwise IP-100,2013-03-01 21:33:00,
2013-03-01 16:38:00,52.0,33.0,29.89,NW,315,0.0,7.0,48,0.00,,,0.00,Rainwise IP-100,2013-03-01 21:38:00,
2013-03-01 16:43:00,52.0,33.0,29.89,West,270,1.0,6.0,48,0.00,,,0.00,Rainwise IP-100,2013-03-01 21:43:00,
2013-03-01 16:48:00,52.0,33.0,29.89,West,270,4.0,8.0,48,0.00,,,0.00,Rainwise IP-100,2013-03-01 21:48:00,
2013-03-01 16:53:00,52.0,33.0,29.89,WSW,247,2.0,8.0,48,0.00,,,0.00,Rainwise IP-100,2013-03-01 21:53:00,
2013-03-01 16:58:00,52.0,35.0,29.89,SW,225,5.0,7.0,50,0.00,,,0.00,Rainwise IP-100,2013-03-01 21:58:00,
2013-03-01 17:03:00,52.0,33.0,29.89,WNW,292,2.0,9.0,48,0.00,,,0.00,Rainwise IP-100,2013-03-01 22:03:00,
2013-03-01 17:08:00,51.0,32.0,29.89,WSW,247,2.0,10.0,48,0.00,,,0.00,Rainwise IP-100,2013-03-01 22:08:00,
2013-03-01 17:13:00,51.0,33.0,29.89,West,270,1.0,6.0,49,0.00,,,0.00,Rainwise IP-100,2013-03-01 22:13:00,
2013-03-01 17:18:00,51.0,33.0,29.89,NW,315,0.0,11.0,49,0.00,,,0.00,Rainwise IP-100,2013-03-01 22:18:00,
2013-03-01 17:23:00,51.0,33.0,29.89,West,270,2.0,8.0,49,0.00,,,0.00,Rainwise IP-100,2013-03-01 22:23:00,
2013-03-01 17:28:00,51.0,32.0,29.89,NW,315,1.0,10.0,48,0.00,,,0.00,Rainwise IP-100,2013-03-01 22:28:00,
2013-03-01 17:33:00,51.0,33.0,29.88,WSW,247,0.0,7.0,50,0.00,,,0.00,Rainwise IP-100,2013-03-01 22:33:00,
2013-03-01 17:38:00,50.0,32.0,29.89,South,180,0.0,6.0,51,0.00,,,0.00,Rainwise IP-100,2013-03-01 22:38:00,
2013-03-01 17:43:00,50.0,33.0,29.89,SSW,202,0.0,6.0,52,0.00,,,0.00,Rainwise IP-100,2013-03-01 22:43:00,
2013-03-01 17:48:00,50.0,33.0,29.89,WSW,247,0.0,1.0,52,0.00,,,0.00,Rainwise IP-100,2013-03-01 22:48:00,
2013-03-01 17:53:00,50.0,33.0,29.89,West,270,0.0,3.0,53,0.00,,,0.00,Rainwise IP-100,2013-03-01 22:53:00,
2013-03-01 17:58:00,50.0,33.0,29.89,WSW,247,0.0,2.0,53,0.00,,,0.00,Rainwise IP-100,2013-03-01 22:58:00,
2013-03-01 18:03:00,50.0,33.0,29.90,SW,225,0.0,2.0,54,0.00,,,0.00,Rainwise IP-100,2013-03-01 23:03:00,
2013-03-01 18:08:00,49.0,33.0,29.90,WSW,247,0.0,0.0,55,0.00,,,0.00,Rainwise IP-100,2013-03-01 23:08:00,
2013-03-01 18:13:00,49.0,35.0,29.90,WSW,247,0.0,0.0,56,0.00,,,0.00,Rainwise IP-100,2013-03-01 23:13:00,
2013-03-01 18:18:00,49.0,35.0,29.90,West,270,2.0,3.0,58,0.00,,,0.00,Rainwise IP-100,2013-03-01 23:18:00,
2013-03-01 18:23:00,49.0,36.0,29.91,SSW,202,2.0,3.0,59,0.00,,,0.00,Rainwise IP-100,2013-03-01 23:23:00,
2013-03-01 18:28:00,49.0,36.0,29.91,SSW,202,0.0,2.0,60,0.00,,,0.00,Rainwise IP-100,2013-03-01 23:28:00,
2013-03-01 18:33:00,49.0,36.0,29.90,SW,225,0.0,2.0,61,0.00,,,0.00,Rainwise IP-100,2013-03-01 23:33:00,
2013-03-01 18:38:00,48.0,36.0,29.90,SW,225,0.0,1.0,61,0.00,,,0.00,Rainwise IP-100,2013-03-01 23:38:00,
2013-03-01 18:43:00,48.0,36.0,29.91,SW,225,0.0,0.0,62,0.00,,,0.00,Rainwise IP-100,2013-03-01 23:43:00,
2013-03-01 18:48:00,48.0,36.0,29.90,SW,225,0.0,2.0,62,0.00,,,0.00,Rainwise IP-100,2013-03-01 23:48:00,
2013-03-01 18:53:00,48.0,36.0,29.90,West,270,0.0,0.0,63,0.00,,,0.00,Rainwise IP-100,2013-03-01 23:53:00,
2013-03-01 18:58:00,48.0,37.0,29.91,West,270,0.0,0.0,64,0.00,,,0.00,Rainwise IP-100,2013-03-01 23:58:00,
2013-03-01 19:03:00,47.0,35.0,29.90,West,270,0.0,0.0,64,0.00,,,0.00,Rainwise IP-100,2013-03-02 00:03:00,
2013-03-01 19:08:00,47.0,35.0,29.90,West,270,0.0,0.0,64,0.00,,,0.00,Rainwise IP-100,2013-03-02 00:08:00,
2013-03-01 19:13:00,47.0,35.0,29.90,West,270,0.0,0.0,64,0.00,,,0.00,Rainwise IP-100,2013-03-02 00:13:00,
2013-03-01 19:18:00,47.0,36.0,29.91,WSW,247,0.0,1.0,65,0.00,,,0.00,Rainwise IP-100,2013-03-02 00:18:00,
2013-03-01 19:23:00,47.0,36.0,29.91,SSW,202,0.0,1.0,65,0.00,,,0.00,Rainwise IP-100,2013-03-02 00:23:00,
2013-03-01 19:28:00,47.0,36.0,29.91,SW,225,0.0,2.0,66,0.00,,,0.00,Rainwise IP-100,2013-03-02 00:28:00,
2013-03-01 19:33:00,47.0,36.0,29.91,WSW,247,0.0,3.0,65,0.00,,,0.00,Rainwise IP-100,2013-03-02 00:33:00,
2013-03-01 19:38:00,47.0,36.0,29.90,WSW,247,0.0,0.0,65,0.00,,,0.00,Rainwise IP-100,2013-03-02 00:38:00,
2013-03-01 19:43:00,47.0,35.0,29.91,SW,225,0.0,4.0,64,0.00,,,0.00,Rainwise IP-100,2013-03-02 00:43:00,
2013-03-01 19:48:00,48.0,37.0,29.92,SSW,202,0.0,2.0,65,0.00,,,0.00,Rainwise IP-100,2013-03-02 00:48:00,
2013-03-01 19:53:00,48.0,37.0,29.92,SSW,202,0.0,3.0,65,0.00,,,0.00,Rainwise IP-100,2013-03-02 00:53:00,
2013-03-01 19:58:00,48.0,36.0,29.92,SSW,202,1.0,3.0,63,0.00,,,0.00,Rainwise IP-100,2013-03-02 00:58:00,
2013-03-01 20:03:00,48.0,36.0,29.92,SSW,202,0.0,4.0,63,0.00,,,0.00,Rainwise IP-100,2013-03-02 01:03:00,
2013-03-01 20:08:00,48.0,37.0,29.92,SSW,202,0.0,2.0,65,0.00,,,0.00,Rainwise IP-100,2013-03-02 01:08:00,
2013-03-01 20:13:00,48.0,37.0,29.92,SSW,202,0.0,0.0,65,0.00,,,0.00,Rainwise IP-100,2013-03-02 01:13:00,
2013-03-01 20:18:00,48.0,37.0,29.91,SSW,202,0.0,2.0,65,0.00,,,0.00,Rainwise IP-100,2013-03-02 01:18:00,
2013-03-01 20:23:00,48.0,37.0,29.91,SW,225,0.0,3.0,66,0.00,,,0.00,Rainwise IP-100,2013-03-02 01:23:00,
2013-03-01 20:28:00,48.0,37.0,29.92,SSW,202,1.0,5.0,65,0.00,,,0.00,Rainwise IP-100,2013-03-02 01:28:00,
2013-03-01 20:33:00,48.0,37.0,29.92,SSW,202,0.0,3.0,65,0.00,,,0.00,Rainwise IP-100,2013-03-02 01:33:00,
2013-03-01 20:38:00,47.0,36.0,29.92,SSW,202,1.0,2.0,65,0.00,,,0.00,Rainwise IP-100,2013-03-02 01:38:00,
2013-03-01 20:43:00,47.0,36.0,29.92,SSW,202,0.0,1.0,65,0.00,,,0.00,Rainwise IP-100,2013-03-02 01:43:00,
2013-03-01 20:48:00,47.0,35.0,29.92,SSW,202,1.0,2.0,64,0.00,,,0.00,Rainwise IP-100,2013-03-02 01:48:00,
2013-03-01 20:53:00,47.0,35.0,29.92,SW,225,0.0,2.0,64,0.00,,,0.00,Rainwise IP-100,2013-03-02 01:53:00,
2013-03-01 20:58:00,47.0,36.0,29.92,SW,225,0.0,0.0,65,0.00,,,0.00,Rainwise IP-100,2013-03-02 01:58:00,
2013-03-01 21:03:00,47.0,36.0,29.92,SW,225,0.0,0.0,67,0.00,,,0.00,Rainwise IP-100,2013-03-02 02:03:00,
2013-03-01 21:08:00,46.0,36.0,29.92,SW,225,0.0,0.0,69,0.00,,,0.00,Rainwise IP-100,2013-03-02 02:08:00,
2013-03-01 21:13:00,46.0,37.0,29.92,SW,225,0.0,0.0,70,0.00,,,0.00,Rainwise IP-100,2013-03-02 02:13:00,
2013-03-01 21:18:00,45.0,36.0,29.92,SW,225,0.0,0.0,71,0.00,,,0.00,Rainwise IP-100,2013-03-02 02:18:00,
2013-03-01 21:23:00,45.0,36.0,29.92,SW,225,0.0,0.0,70,0.00,,,0.00,Rainwise IP-100,2013-03-02 02:23:00,
2013-03-01 21:28:00,45.0,36.0,29.93,SW,225,0.0,0.0,71,0.00,,,0.00,Rainwise IP-100,2013-03-02 02:28:00,
2013-03-01 21:33:00,45.0,36.0,29.93,SW,225,0.0,0.0,71,0.00,,,0.00,Rainwise IP-100,2013-03-02 02:33:00,
2013-03-01 21:38:00,45.0,36.0,29.93,SW,225,0.0,0.0,71,0.00,,,0.00,Rainwise IP-100,2013-03-02 02:38:00,
2013-03-01 21:43:00,45.0,37.0,29.93,SW,225,0.0,0.0,74,0.00,,,0.00,Rainwise IP-100,2013-03-02 02:43:00,
2013-03-01 21:48:00,45.0,37.0,29.93,SW,225,0.0,0.0,74,0.00,,,0.00,Rainwise IP-100,2013-03-02 02:48:00,
2013-03-01 21:53:00,45.0,37.0,29.92,SW,225,0.0,0.0,74,0.00,,,0.00,Rainwise IP-100,2013-03-02 02:53:00,
2013-03-01 21:58:00,45.0,37.0,29.92,SW,225,0.0,0.0,72,0.00,,,0.00,Rainwise IP-100,2013-03-02 02:58:00,
2013-03-01 22:03:00,45.0,36.0,29.93,SW,225,0.0,0.0,71,0.00,,,0.00,Rainwise IP-100,2013-03-02 03:03:00,
2013-03-01 22:08:00,45.0,37.0,29.92,SW,225,0.0,0.0,72,0.00,,,0.00,Rainwise IP-100,2013-03-02 03:08:00,
2013-03-01 22:13:00,45.0,37.0,29.93,SW,225,0.0,0.0,72,0.00,,,0.00,Rainwise IP-100,2013-03-02 03:13:00,
2013-03-01 22:18:00,45.0,37.0,29.93,SW,225,0.0,0.0,74,0.00,,,0.00,Rainwise IP-100,2013-03-02 03:18:00,
2013-03-01 22:23:00,45.0,37.0,29.93,SW,225,0.0,0.0,73,0.00,,,0.00,Rainwise IP-100,2013-03-02 03:23:00,
2013-03-01 22:28:00,45.0,37.0,29.93,SW,225,0.0,0.0,74,0.00,,,0.00,Rainwise IP-100,2013-03-02 03:28:00,
2013-03-01 22:33:00,44.0,36.0,29.92,SW,225,0.0,0.0,74,0.00,,,0.00,Rainwise IP-100,2013-03-02 03:33:00,
2013-03-01 22:38:00,44.0,36.0,29.92,SW,225,0.0,0.0,74,0.00,,,0.00,Rainwise IP-100,2013-03-02 03:38:00,
2013-03-01 22:43:00,44.0,37.0,29.92,SW,225,0.0,0.0,75,0.00,,,0.00,Rainwise IP-100,2013-03-02 03:43:00,
2013-03-01 22:48:00,43.0,36.0,29.92,SW,225,0.0,2.0,75,0.00,,,0.00,Rainwise IP-100,2013-03-02 03:48:00,
2013-03-01 22:53:00,44.0,36.0,29.92,SSW,202,0.0,3.0,74,0.00,,,0.00,Rainwise IP-100,2013-03-02 03:53:00,
2013-03-01 22:58:00,44.0,36.0,29.92,SSW,202,1.0,3.0,73,0.00,,,0.00,Rainwise IP-100,2013-03-02 03:58:00,
2013-03-01 23:03:00,45.0,37.0,29.92,SW,225,0.0,3.0,72,0.00,,,0.00,Rainwise IP-100,2013-03-02 04:03:00,
2013-03-01 23:08:00,45.0,37.0,29.92,SSW,202,4.0,6.0,72,0.00,,,0.00,Rainwise IP-100,2013-03-02 04:08:00,
2013-03-01 23:13:00,45.0,37.0,29.92,SW,225,1.0,6.0,72,0.00,,,0.00,Rainwise IP-100,2013-03-02 04:13:00,
2013-03-01 23:18:00,45.0,36.0,29.92,SW,225,0.0,2.0,71,0.00,,,0.00,Rainwise IP-100,2013-03-02 04:18:00,
2013-03-01 23:23:00,45.0,37.0,29.92,SW,225,0.0,1.0,73,0.00,,,0.00,Rainwise IP-100,2013-03-02 04:23:00,
2013-03-01 23:28:00,44.0,36.0,29.92,SW,225,0.0,2.0,74,0.00,,,0.00,Rainwise IP-100,2013-03-02 04:28:00,
2013-03-01 23:33:00,44.0,36.0,29.92,SSW,202,1.0,0.0,74,0.00,,,0.00,Rainwise IP-100,2013-03-02 04:33:00,
2013-03-01 23:38:00,44.0,37.0,29.91,West,270,0.0,3.0,76,0.00,,,0.00,Rainwise IP-100,2013-03-02 04:38:00,
2013-03-01 23:43:00,44.0,37.0,29.91,SSW,202,1.0,2.0,76,0.00,,,0.00,Rainwise IP-100,2013-03-02 04:43:00,
2013-03-01 23:48:00,44.0,37.0,29.91,SSW,202,0.0,3.0,76,0.00,,,0.00,Rainwise IP-100,2013-03-02 04:48:00,
2013-03-01 23:53:00,44.0,37.0,29.91,SW,225,0.0,6.0,75,0.00,,,0.00,Rainwise IP-100,2013-03-02 04:53:00,
2013-03-01 23:58:00,44.0,36.0,29.92,SSW,202,0.0,6.0,74,0.00,,,0.00,Rainwise IP-100,2013-03-02 04:58:00,